[[{"header":{"parameterUnit":"m.s-1","parameterCategory":1,"la1":30.2991,"la2":30.254,"lo1":-89.0895,"lo2":-89.0444,"dy":0.0017,"dx":0.0017,"nx":28,"ny":28,"refTime":"2023-08-15T03:00:00:Z","depth":0,"parameterNumber":2,"parameterNumberName":"U-component_of_WINDS"},"data":[0,0,0,0,0,0,0,0,0,0,0,0,0,0,0,0,0,0,0,0,0,0,0,0,0,0,0,0,0,0,0,0,0,0,0,0,0,0,0,0,0,0,0,0,0,0,0,0,0,0,0,0,0,0,0,0,0,0,1.7354,1.7352,0,1.7202,1.72,1.7199,1.7111,1.7111,1.7111,1.711,1.6948,1.6944,1.694,0,0,0,0,0,0,0,0,0,0,0,0,0,1.7562,1.7558,1.7354,1.7352,1.735,1.7202,1.72,1.7198,1.7111,1.7111,1.711,1.711,1.6949,1.6944,1.6939,0,0,0,0,0,0,0,0,0,0,0,0,0,1.7447,1.7557,1.7354,1.7289,1.7282,1.7203,1.72,1.7198,1.7111,1.7111,1.711,1.711,1.6951,1.6945,1.6939,1.691,0,0,1.692,1.6918,0,0,0,0,0,0,0,0,1.7453,1.7439,1.7301,1.7294,1.7285,1.7175,1.7214,1.7101,1.7111,1.7176,1.711,1.711,1.7023,1.7011,1.6983,1.6903,1.6896,1.692,1.6916,1.6913,1.6912,0,0,0,0,0,0,0,1.7461,1.7445,1.7294,1.7299,1.7289,1.7265,1.7248,1.7192,1.7104,1.717,1.7164,1.7147,1.7019,1.699,1.6979,1.6893,1.692,1.6914,1.6911,1.6908,1.6782,1.6782,0,0,0,0,0,0,1.7481,1.7452,1.7298,1.7289,1.737,1.7262,1.7243,1.7211,1.7104,1.7088,1.7148,1.7144,1.7,1.6986,1.6973,1.6934,1.6913,1.6908,1.6904,1.6782,1.6782,1.6782,0,0,0,0,0,0,1.7486,1.7468,1.7305,1.7369,1.7346,1.7259,1.7223,1.7208,1.7179,1.7087,1.707,1.7135,1.6999,1.6981,1.6927,1.6927,1.6905,1.6899,1.6781,1.6782,1.6782,1.6855,0,0,0,0,0,0,1.7492,1.747,1.746,1.7369,1.7343,1.7264,1.7223,1.7205,1.7169,1.7163,1.707,1.7055,1.6998,1.6937,1.6921,1.6918,1.6895,1.6781,1.6782,1.6782,1.6852,1.6858,1.6863,0,0,0,0,0,1.75,1.7485,1.746,1.7442,1.733,1.7264,1.7249,1.7186,1.717,1.7158,1.7099,1.7057,1.6929,1.6932,1.6914,1.6909,1.6781,1.6781,1.6782,1.685,1.6857,1.6863,0,0,0,0,0,0,1.7576,1.7472,1.7443,1.74,1.7342,1.725,1.7233,1.7195,1.7138,1.7134,1.7055,1.7035,1.6989,1.6942,1.6948,1.6876,1.685,1.6847,1.6908,1.6914,1.6919,1.6932,1.689,0,0,0,0,0,1.7589,1.7546,1.7457,1.7427,1.7399,1.7322,1.729,1.7247,1.7182,1.7157,1.7094,1.7031,1.6976,1.6942,1.6887,1.6845,1.6823,1.6832,1.6837,1.6842,1.6841,1.6816,1.6819,1.6784,1.6784,1.6784,0,0,1.7613,1.7551,1.7528,1.744,1.739,1.7347,1.7301,1.7256,1.7223,1.7149,1.7095,1.7047,1.6971,1.6924,1.6899,1.6884,1.6845,1.6843,1.6847,1.6843,1.6817,1.682,1.6823,1.6785,1.6785,1.6785,0,0,1.7635,1.7584,1.7554,1.7505,1.743,1.7378,1.7371,1.7284,1.725,1.7195,1.7139,1.7096,1.7004,1.6953,1.6915,1.6918,1.6877,1.6901,1.6929,1.6906,1.6908,1.691,1.6912,1.6914,1.69,1.69,1.69,0,1.7674,1.7609,1.7542,1.7502,1.7464,1.7397,1.7366,1.732,1.723,1.7205,1.719,1.7073,1.7017,1.6957,1.6958,1.6929,1.6918,1.6912,1.6914,1.6915,1.6916,1.6917,1.6918,1.6904,1.6903,1.6903,1.6903,0,1.766,1.7615,1.7599,1.7518,1.7478,1.7442,1.7368,1.7336,1.7295,1.7244,1.7189,1.7119,1.705,1.7031,1.699,1.6965,1.6958,1.6929,1.6902,1.6924,1.6924,1.6923,1.6909,1.6908,1.6906,1.6906,0,0,1.7729,1.7611,1.7606,1.7569,1.7481,1.7443,1.7403,1.7337,1.7311,1.725,1.7214,1.7138,1.7111,1.7068,1.7019,1.6999,1.7006,1.6972,1.6969,1.6982,1.6976,1.7,1.7002,1.6978,1.6978,1.6978,1.6983,0,1.774,1.7668,1.7607,1.7556,1.7513,1.7448,1.7413,1.7354,1.7306,1.726,1.7205,1.7153,1.712,1.7094,1.707,1.7011,1.7004,1.7009,1.6944,1.6942,1.6968,1.7001,1.7026,1.7034,1.6982,1.6982,1.6982,0,1.7744,1.7689,1.7635,1.7552,1.7532,1.7502,1.7436,1.7394,1.7325,1.7291,1.7243,1.7193,1.7146,1.7123,1.7057,1.7062,1.703,1.6997,1.6996,1.6989,1.6965,1.6997,1.7035,1.7037,1.698,1.6981,1.6981,0,1.7802,1.7713,1.767,1.7639,1.754,1.7521,1.7478,1.7409,1.7374,1.7315,1.7291,1.7227,1.7192,1.7143,1.7076,1.7065,1.7017,1.6988,1.6988,1.699,1.6982,1.6984,1.7018,1.6959,1.6959,1.6959,1.6959,0,1.7822,1.7792,1.7695,1.7669,1.7632,1.756,1.7526,1.7477,1.7416,1.7378,1.7316,1.7281,1.7195,1.7149,1.7096,1.705,1.7034,1.7004,1.6991,1.7011,1.7016,1.6992,1.699,1.6959,1.6959,1.6959,1.6959,0,1.7881,1.7815,1.7764,1.7675,1.7651,1.7629,1.7552,1.7522,1.747,1.7422,1.7406,1.7323,1.7266,1.7195,1.7114,1.7078,1.7038,1.7016,1.7063,1.7055,1.706,1.7061,1.7081,1.708,1.7021,1.7022,1.7022,0,1.79,1.7876,1.7784,1.7755,1.7716,1.7669,1.7632,1.756,1.7524,1.7444,1.7424,1.7363,1.731,1.7221,1.7152,1.709,1.7068,1.7079,1.7058,1.708,1.707,1.7074,1.7071,1.7085,1.7086,1.7087,1.7088,0,1.7941,1.7909,1.786,1.7799,1.7758,1.7706,1.7651,1.763,1.7546,1.7508,1.745,1.7409,1.7328,1.7267,1.7196,1.715,1.7105,1.7095,1.7092,1.7113,1.7142,1.7128,1.708,1.7095,1.7094,1.7094,1.7093,1.7093,1.7981,1.7957,1.7889,1.7836,1.7788,1.7738,1.7707,1.765,1.7601,1.7531,1.749,1.7433,1.7363,1.7264,1.722,1.7173,1.7157,1.7152,1.7151,1.7151,1.7159,1.7148,1.716,1.7159,1.7159,1.7159,1.7159,0,1.8021,1.7974,1.7926,1.7852,1.781,1.7772,1.7709,1.7676,1.7628,1.7567,1.7517,1.745,1.7391,1.7318,1.7254,1.7231,1.7208,1.7216,1.7218,1.7209,1.7176,1.7186,1.7236,1.7236,1.7236,1.7236,1.7236,1.7236,1.8036,1.7994,1.7954,1.7886,1.7837,1.7783,1.7751,1.7704,1.7656,1.7585,1.7536,1.7489,1.7423,1.7354,1.7298,1.7277,1.7257,1.7272,1.7246,1.7217,1.7211,1.7204,1.7214,1.7268,1.7268,1.7282,1.7282,1.7283]},{"header":{"parameterUnit":"m.s-1","parameterCategory":1,"la1":30.2991,"la2":30.254,"lo1":-89.0895,"lo2":-89.0444,"dy":0.0017,"dx":0.0017,"nx":28,"ny":28,"refTime":"2023-08-15T03:00:00:Z","depth":0,"parameterNumber":3,"parameterNumberName":"V-component_of_WINDS"},"data":[0,0,0,0,0,0,0,0,0,0,0,0,0,0,0,0,0,0,0,0,0,0,0,0,0,0,0,0,0,0,0,0,0,0,0,0,0,0,0,0,0,0,0,0,0,0,0,0,0,0,0,0,0,0,0,0,0,0,-0.0552,-0.0554,0,-0.0707,-0.0709,-0.0711,-0.0844,-0.0845,-0.0847,-0.0848,-0.0996,-0.0999,-0.1001,0,0,0,0,0,0,0,0,0,0,0,0,0,-0.0362,-0.0365,-0.0552,-0.0554,-0.0556,-0.0707,-0.0709,-0.0711,-0.0844,-0.0846,-0.0847,-0.0849,-0.0996,-0.0999,-0.1002,0,0,0,0,0,0,0,0,0,0,0,0,0,-0.0473,-0.0366,-0.0552,-0.0641,-0.065,-0.0707,-0.0709,-0.0712,-0.0843,-0.0846,-0.0848,-0.085,-0.0995,-0.0998,-0.1002,-0.098,0,0,-0.1014,-0.1015,0,0,0,0,0,0,0,0,-0.0467,-0.048,-0.0625,-0.0634,-0.0645,-0.0759,-0.0697,-0.0801,-0.0843,-0.0769,-0.0848,-0.0851,-0.0915,-0.0925,-0.0949,-0.0987,-0.0993,-0.1014,-0.1016,-0.1018,-0.1019,0,0,0,0,0,0,0,-0.0459,-0.0474,-0.0613,-0.0627,-0.0639,-0.067,-0.0688,-0.0717,-0.0827,-0.0776,-0.0786,-0.0803,-0.0921,-0.0945,-0.0953,-0.0995,-0.1014,-0.1017,-0.1019,-0.1021,-0.1025,-0.1023,0,0,0,0,0,0,-0.0439,-0.0467,-0.0608,-0.0618,-0.056,-0.0672,-0.0692,-0.072,-0.0827,-0.0846,-0.0801,-0.0809,-0.0937,-0.0949,-0.0959,-0.0942,-0.1018,-0.1021,-0.1023,-0.1028,-0.1025,-0.1023,0,0,0,0,0,0,-0.0434,-0.045,-0.0602,-0.0545,-0.0567,-0.0673,-0.0703,-0.0722,-0.0747,-0.0847,-0.0866,-0.0807,-0.094,-0.0954,-0.0975,-0.0949,-0.1023,-0.1026,-0.103,-0.1027,-0.1024,-0.0906,0,0,0,0,0,0,-0.0428,-0.0448,-0.0442,-0.0544,-0.057,-0.0617,-0.0701,-0.0723,-0.0754,-0.0766,-0.0857,-0.0874,-0.0943,-0.0969,-0.0979,-0.0956,-0.1029,-0.1033,-0.1029,-0.1025,-0.0913,-0.09,-0.0888,0,0,0,0,0,-0.0421,-0.04,-0.0441,-0.0457,-0.0565,-0.0615,-0.063,-0.0712,-0.0751,-0.0746,-0.081,-0.0871,-0.0951,-0.097,-0.0982,-0.096,-0.1035,-0.103,-0.1025,-0.0919,-0.0902,-0.0888,0,0,0,0,0,0,-0.0286,-0.0415,-0.0462,-0.0473,-0.0533,-0.0638,-0.0633,-0.0692,-0.0739,-0.0747,-0.0845,-0.0864,-0.0875,-0.092,-0.0939,-0.0946,-0.1001,-0.0998,-0.0916,-0.0901,-0.0889,-0.0877,-0.1033,0,0,0,0,0,-0.0259,-0.0292,-0.0401,-0.0401,-0.0429,-0.0525,-0.055,-0.061,-0.0674,-0.0699,-0.0765,-0.0822,-0.0861,-0.0883,-0.0924,-0.0921,-0.0943,-0.0912,-0.0899,-0.0888,-0.0884,-0.0888,-0.0876,-0.1007,-0.1007,-0.1007,0,0,-0.02,-0.0275,-0.0289,-0.0376,-0.0429,-0.0459,-0.0545,-0.0573,-0.0596,-0.0702,-0.0728,-0.0778,-0.0848,-0.0858,-0.0865,-0.0896,-0.0854,-0.0882,-0.0873,-0.0875,-0.0882,-0.0869,-0.0858,-0.1003,-0.1004,-0.1005,0,0,-0.011,-0.017,-0.0178,-0.0231,-0.0313,-0.0378,-0.0379,-0.0477,-0.0516,-0.0544,-0.0625,-0.0652,-0.0716,-0.0764,-0.0796,-0.0729,-0.0786,-0.0739,-0.0673,-0.0675,-0.0665,-0.0656,-0.0632,-0.0623,-0.0735,-0.0735,-0.0735,0,-0.0026,-0.0079,-0.0173,-0.0198,-0.0233,-0.0336,-0.0344,-0.0389,-0.0478,-0.0499,-0.0533,-0.0618,-0.0672,-0.0696,-0.068,-0.0702,-0.0707,-0.0728,-0.0659,-0.0652,-0.0645,-0.0623,-0.0614,-0.0728,-0.0729,-0.073,-0.073,0,0.0028,-0.0007,-0.0003,-0.0092,-0.0127,-0.0142,-0.0237,-0.0261,-0.0319,-0.038,-0.0407,-0.0477,-0.0535,-0.0545,-0.0599,-0.0577,-0.0593,-0.0642,-0.0699,-0.0625,-0.0606,-0.0599,-0.072,-0.0722,-0.0724,-0.0725,0,0,0.0202,0.0057,0.006,0.0017,-0.0082,-0.0109,-0.0129,-0.0191,-0.021,-0.0268,-0.0287,-0.0341,-0.0388,-0.0425,-0.0485,-0.0487,-0.0431,-0.0536,-0.0539,-0.0514,-0.0411,-0.0374,-0.0363,-0.047,-0.0469,-0.0468,-0.0406,0,0.0276,0.0229,0.0142,0.0125,0.0091,-0.0009,-0.0027,-0.0088,-0.0146,-0.0181,-0.0245,-0.0282,-0.0341,-0.0364,-0.0371,-0.0436,-0.0411,-0.0442,-0.0487,-0.0487,-0.0466,-0.0353,-0.0313,-0.025,-0.0399,-0.0398,-0.0397,0,0.0357,0.0299,0.0277,0.0176,0.0159,0.0144,0.0079,0.0046,-0.0026,-0.0068,-0.0112,-0.018,-0.0205,-0.0259,-0.0295,-0.0314,-0.0338,-0.0373,-0.0372,-0.0379,-0.0436,-0.0356,-0.0232,-0.0222,-0.0386,-0.0387,-0.0388,0,0.0485,0.0402,0.0377,0.0344,0.0226,0.0217,0.0169,0.0094,0.0062,0.0006,-0.0016,-0.0071,-0.0101,-0.0142,-0.0223,-0.0255,-0.025,-0.031,-0.0284,-0.0282,-0.0277,-0.0276,-0.0155,-0.0293,-0.0293,-0.0293,-0.0294,0,0.0577,0.0568,0.0432,0.0417,0.0403,0.0303,0.0293,0.0236,0.0169,0.0143,0.0055,0.0032,-0.0074,-0.0108,-0.0171,-0.0192,-0.0204,-0.0238,-0.0254,-0.023,-0.0225,-0.0246,-0.0252,-0.0291,-0.0292,-0.0292,-0.0292,0,0.0719,0.0628,0.0594,0.0483,0.0455,0.045,0.0356,0.0338,0.0273,0.024,0.0227,0.0126,0.0081,-0.0005,-0.0072,-0.0115,-0.0121,-0.015,-0.0098,-0.0108,-0.0078,-0.0079,0.0035,0.0045,-0.0098,-0.0097,-0.0096,0,0.0784,0.0773,0.066,0.0633,0.0586,0.0545,0.051,0.0411,0.0379,0.0294,0.0287,0.0234,0.0186,0.0119,0.0041,-0.0011,-0.0042,0.0001,-0.005,-0.0026,-0.0042,-0.004,-0.0042,0.0014,0.0016,0.0018,0.0019,0,0.0909,0.0863,0.0814,0.0748,0.0707,0.0652,0.0593,0.0578,0.0465,0.0434,0.0384,0.0347,0.0274,0.0223,0.0158,0.011,0.0047,0.0035,0.0038,0.0064,0.0095,0.0078,-0.0066,0.0034,0.0032,0.0031,0.003,0.003,0.1014,0.0998,0.0914,0.0862,0.0806,0.0751,0.0728,0.0658,0.0613,0.0544,0.0489,0.0443,0.037,0.0275,0.0231,0.0195,0.0165,0.017,0.0172,0.0174,0.0184,0.0099,0.0183,0.0183,0.0182,0.0182,0.0182,0,0.1133,0.1073,0.1026,0.0942,0.0901,0.0839,0.077,0.0741,0.07,0.0635,0.0588,0.053,0.0479,0.0396,0.0338,0.0326,0.0295,0.0314,0.0315,0.0304,0.0215,0.0217,0.034,0.0339,0.0339,0.0339,0.0339,0.0339,0.1191,0.116,0.1104,0.1046,0.0986,0.0937,0.0903,0.0853,0.0799,0.0737,0.0692,0.0637,0.0564,0.05,0.0451,0.0427,0.0411,0.0439,0.0408,0.0326,0.0311,0.0297,0.0299,0.0436,0.0437,0.05,0.0501,0.0501]}]]